Weather History for Pecs, Hungary

Change the Weather History Date:

Monday, January 28, 2013

  Actual Average Record
Temperature  
Mean Temperature 30 °F -  
Max Temperature 34 °F 41 °F - ()
Min Temperature 27 °F 29 °F - ()
Degree Days  
Heating Degree Days 34    
Moisture  
Dew Point 28 °F    
Average Humidity 89    
Maximum Humidity 100    
Minimum Humidity 75    
Precipitation  
Precipitation 0.01 in 0.04 in - ()
Sea Level Pressure  
Sea Level Pressure 30.00 in    
Wind  
Wind Speed 5 mph ()    
Max Wind Speed 11 mph    
Max Gust Speed -    
Visibility 2.7 miles    
Events Snow    
T = Trace of Precipitation, MM = Missing Value Source: Averaged Metar Reports

Daily Weather History Graph

Daily Weather History Graph

Search for Another Location

Airport:

Trip Planner

Search our weather history database for the weather conditions in past years. The results will help you decide how hot, cold, wet, or windy it might be!

Date:

Astronomy

Jan. 28, 2013 Rise Set
Actual Time 7:13 AM CET 4:46 PM CET
Civil Twilight 6:41 AM CET 5:18 PM CET
Nautical Twilight 6:05 AM CET 5:55 PM CET
Astronomical Twilight 5:30 AM CET 6:30 PM CET
Moon 6:31 PM CET 7:23 AM CET
Length of Visible Light 10h 37m
Length of Day
9h 32m
Full, 98% of the Moon is Illuminated
Jan 28
Full
Feb 3
Last Quarter
Feb 10
New
Feb 17
First Quarter
Feb 25
Full

Hourly Weather History & Observations

Time (CET) Temp. Windchill Dew Point Humidity Pressure Visibility Wind Dir Wind Speed Gust Speed Precip Events Conditions
12:45 AM 28.4 °F 19.1 °F 24.8 °F 86% 29.89 in 5.0 mi SE 10.4 mph - N/A   Overcast
1:00 AM 28 °F - 25 °F 84% 29.92 in 5 mi SE 11.2 mph - -   Partly Cloudy
1:45 AM 28.4 °F 24.6 °F 24.8 °F 86% 29.89 in 5.0 mi SE 3.5 mph - N/A   Overcast
2:45 AM 28.4 °F - 26.6 °F 93% 29.86 in 5.0 mi NW 2.3 mph - N/A   Overcast
3:45 AM 28.4 °F 24.6 °F 24.8 °F 86% 29.86 in 5.0 mi NW 3.5 mph - N/A   Overcast
4:45 AM 28.4 °F 22.2 °F 24.8 °F 86% 29.86 in 5.0 mi ENE 5.8 mph - N/A   Overcast
5:15 AM 26.6 °F 20.0 °F 24.8 °F 93% 29.89 in 5.0 mi ENE 5.8 mph - N/A   Overcast
5:45 AM 28.4 °F 22.2 °F 24.8 °F 86% 29.89 in 5.0 mi East 5.8 mph - N/A   Overcast
6:00 AM - - - N/A% - 3.1 mi ENE 5.8 mph - N/A   Overcast
6:15 AM 28.4 °F 22.2 °F 24.8 °F 86% 29.89 in 5.0 mi East 5.8 mph - N/A   Overcast
6:45 AM 28.4 °F 22.2 °F 26.6 °F 93% 29.89 in 3.7 mi East 5.8 mph - N/A   Overcast
7:00 AM 28 °F - 26 °F 87% 29.94 in 4 mi East 6.7 mph - -   Partly Cloudy
7:11 AM 28.4 °F 22.2 °F 26.6 °F 93% 29.95 in 1.9 mi East 5.8 mph - N/A   Overcast
7:13 AM 28.4 °F 22.2 °F 26.6 °F 93% 29.95 in 1.9 mi East 5.8 mph - N/A   Overcast
7:15 AM 28.4 °F 22.2 °F 26.6 °F 93% 29.92 in 1.9 mi East 5.8 mph - N/A   Overcast
7:45 AM 28.4 °F 23.3 °F 26.6 °F 93% 29.92 in 1.9 mi ENE 4.6 mph - N/A   Overcast
8:15 AM 28.4 °F 22.2 °F 26.6 °F 93% 29.92 in 1.9 mi East 5.8 mph - N/A   Overcast
8:45 AM 28.4 °F 23.3 °F 26.6 °F 93% 29.92 in 1.9 mi East 4.6 mph - N/A   Overcast
9:00 AM - - - N/A% - 1.9 mi East 5.8 mph - N/A   Overcast
9:15 AM 28.4 °F 21.2 °F 26.6 °F 93% 29.92 in 1.9 mi ESE 6.9 mph - N/A   Overcast
9:45 AM 30.2 °F 24.3 °F 26.6 °F 86% 29.95 in 1.9 mi ESE 5.8 mph - N/A   Overcast
10:15 AM 30.2 °F 24.3 °F 26.6 °F 86% 29.95 in 1.9 mi East 5.8 mph - N/A   Mostly Cloudy
10:45 AM 30.2 °F 25.4 °F 26.6 °F 86% 29.95 in 2.5 mi ESE 4.6 mph - N/A   Overcast
11:15 AM 32.0 °F - 26.6 °F 80% 29.98 in 2.5 mi East 1.2 mph - N/A   Overcast
11:45 AM 32.0 °F - 26.6 °F 80% 29.95 in 2.5 mi Calm Calm - N/A   Overcast
12:00 PM - - - N/A% - 2.2 mi ESE 5.8 mph - N/A   Overcast
12:15 PM 33.8 °F - 28.4 °F 81% 29.98 in 2.5 mi Calm Calm - N/A   Overcast
12:45 PM 32.0 °F 28.7 °F 26.6 °F 80% 29.98 in 2.5 mi SW 3.5 mph - N/A   Overcast
1:00 PM 32 °F - 27 °F 75% 30.00 in 2 mi SW 4.5 mph - -   Mist
1:15 PM 33.8 °F 30.8 °F 28.4 °F 81% 29.98 in 2.5 mi West 3.5 mph - N/A   Overcast
1:45 PM 33.8 °F 29.6 °F 28.4 °F 81% 29.98 in 2.5 mi West 4.6 mph - N/A   Overcast
2:15 PM 33.8 °F 27.7 °F 28.4 °F 81% 30.01 in 2.5 mi WNW 6.9 mph - N/A   Overcast
2:45 PM 33.8 °F 25.8 °F 28.4 °F 81% 30.01 in 2.5 mi WNW 10.4 mph - N/A   Overcast
3:00 PM - - - N/A% - 2.5 mi NW 8.1 mph - N/A   Overcast
3:15 PM 33.8 °F 28.6 °F 28.4 °F 81% 30.01 in 2.5 mi NW 5.8 mph - N/A   Overcast
4:10 PM 33.8 °F 29.6 °F 30.2 °F 87% 30.06 in 1.9 mi NNW 4.6 mph - N/A Snow Light Snow
4:15 PM 33.8 °F 29.6 °F 30.2 °F 87% 30.04 in 1.9 mi NNW 4.6 mph - N/A Snow Light Snow
4:45 PM 32.0 °F - 30.2 °F 93% 30.04 in 2.5 mi NW 2.3 mph - N/A Snow Light Snow
5:13 PM 32.0 °F - 30.2 °F 93% 30.09 in 1.9 mi NW 2.3 mph - N/A   Mostly Cloudy
5:15 PM 32.0 °F - 30.2 °F 93% 30.06 in 1.9 mi NW 2.3 mph - N/A   Mostly Cloudy
5:45 PM 32.0 °F - 30.2 °F 93% 30.06 in 1.9 mi NW 2.3 mph - N/A   Overcast
6:15 PM 32.0 °F - 30.2 °F 93% 30.09 in 1.9 mi NNW 2.3 mph - N/A   Overcast
6:45 PM 32.0 °F 25.6 °F 30.2 °F 93% 30.09 in 2.5 mi NNW 6.9 mph - N/A   Overcast
6:58 PM 32.0 °F 26.4 °F 28.4 °F 87% 30.15 in 2.5 mi NNW 5.8 mph - N/A   Drizzle
7:00 PM 32 °F - 29 °F 86% 30.14 in 2 mi NNW 6.7 mph - -   Mist
7:15 PM 32.0 °F 27.5 °F 30.2 °F 93% 30.09 in 2.5 mi NNW 4.6 mph - N/A   Drizzle
7:45 PM 32.0 °F 28.7 °F 30.2 °F 93% 30.12 in 2.5 mi NW 3.5 mph - N/A   Drizzle
8:15 PM 32.0 °F - 30.2 °F 93% 30.12 in 2.5 mi NW 2.3 mph - N/A   Drizzle
8:41 PM 32.0 °F - 30.2 °F 93% 30.18 in 2.5 mi West 2.3 mph - N/A   Overcast
8:45 PM 32.0 °F - 30.2 °F 93% 30.15 in 2.5 mi WNW 2.3 mph - N/A   Overcast
9:37 PM 32.0 °F 26.4 °F 30.2 °F 93% 30.18 in 1.2 mi WNW 5.8 mph - N/A Snow Light Snow
9:45 PM 32.0 °F 26.4 °F 30.2 °F 93% 30.15 in 1.2 mi WNW 5.8 mph - N/A Snow Light Snow
10:45 PM 30.2 °F 25.4 °F 30.2 °F 100% 30.15 in 1.2 mi West 4.6 mph - N/A Snow Light Snow
11:45 PM 30.2 °F 24.3 °F 30.2 °F 100% 30.15 in 1.9 mi West 5.8 mph - N/A   Overcast